Wind_Speed
23 22 22 22 23 23 23 23 23 23 23 23 23 24 24 24 25 25 26 26 27 27 28 28 29 29 29 30 30 31 31 32 32 32 33 33 33 33 33 33 33 33 33
25 24 24 24 24 24 24 24 24 24 25 25 25 25 26 26 27 27 27 27 28 28 28 29 29 29 29 30 30 31 31 32 32 32 33 33 34 34 34 35 35 35 35
27 27 27 26 26 26 26 26 26 26 27 27 27 27 27 28 28 28 29 29 29 29 29 29 30 30 31 31 31 32 32 33 33 33 33 34 34 35 35 35 36 36 37
30 30 29 29 29 29 29 29 29 29 29 29 29 29 29 30 30 30 30 30 30 30 31 31 31 31 31 32 32 32 32 33 33 34 34 34 35 35 36 36 37 37 38
34 33 32 32 32 32 31 31 31 31 31 31 31 31 31 32 32 32 32 32 32 32 32 32 32 32 32 32 32 33 33 33 34 34 34 35 36 37 37 38 38 39 39
37 36 35 35 35 35 34 34 34 34 34 34 34 34 34 34 34 34 34 34 35 35 35 34 34 34 34 34 34 34 34 34 34 35 36 36 37 37 38 39 40 40 41
39 38 38 38 38 38 38 38 37 37 37 37 37 37 37 37 37 37 37 37 37 37 37 37 36 37 37 37 36 36 36 36 36 37 37 38 38 38 39 40 40 41 42
41 41 41 41 41 41 41 40 40 40 40 40 40 40 40 39 39 40 39 39 39 39 39 39 39 40 40 39 39 39 39 39 39 39 40 40 40 41 41 42 42 43 44
44 44 44 44 44 44 44 44 44 44 44 43 43 43 43 42 42 42 42 42 41 42 42 42 42 43 42 42 42 42 42 42 42 42 42 42 43 43 44 45 45 46 46
46 47 47 47 47 47 47 47 47 47 47 46 46 46 46 46 46 45 44 44 44 44 45 45 45 45 45 45 45 45 45 45 45 45 46 46 46 47 47 48 49 49 50
48 49 49 50 50 50 50 50 50 50 49 49 49 49 49 49 49 48 48 47 47 47 47 48 48 48 48 48 48 48 48 48 48 49 49 49 50 50 51 51 52 52 53
49 50 51 52 52 52 53 53 53 53 53 52 52 52 52 52 52 51 51 50 49 49 50 50 50 50 51 50 50 50 50 50 50 51 52 53 53 54 54 55 56 57 57
49 51 52 53 54 55 55 56 56 55 55 54 54 54 54 53 53 54 53 52 52 52 52 52 52 52 53 53 53 52 52 52 53 55 56 56 57 58 58 59 60 61 62
51 52 54 56 57 58 58 58 58 58 57 57 56 55 56 55 55 56 55 55 55 54 54 54 55 55 55 55 55 54 54 55 56 58 58 59 60 61 62 63 64 65 66
53 55 57 58 59 60 60 61 61 60 59 58 57 57 57 56 56 56 56 56 56 56 55 57 57 58 58 56 56 57 58 59 60 60 61 62 63 64 65 66 68 69 70
54 56 58 59 60 61 61 61 61 60 59 58 57 57 57 57 59 57 56 56 56 56 56 57 58 58 58 57 59 59 60 61 62 63 64 65 67 68 69 70 72 73 74
55 56 58 59 60 60 60 58 57 56 55 55 55 55 55 56 57 55 55 56 58 56 57 57 58 58 58 59 60 61 62 63 64 65 67 68 69 71 72 73 75 76 77
53 55 56 57 57 57 57 56 54 54 53 52 52 54 55 54 53 54 55 55 55 56 56 57 58 58 59 60 61 62 64 65 65 67 69 71 72 73 75 76 78 78 79
50 50 51 52 52 52 51 51 51 50 50 50 51 51 51 51 52 53 53 53 54 55 56 58 58 58 59 61 62 63 65 65 67 69 71 73 74 76 77 78 78 78 77
45 45 45 44 44 45 45 45 45 45 46 47 47 47 48 48 49 50 51 52 53 54 55 56 56 58 60 62 63 64 65 67 69 71 73 75 76 76 77 76 74 73 71
38 38 36 35 35 36 37 37 38 39 40 41 43 43 44 45 45 46 48 49 50 51 53 54 57 59 61 62 63 65 66 68 71 73 73 74 74 73 71 70 69 67 66
31 30 29 28 28 28 29 31 32 32 34 36 38 39 40 41 43 44 45 47 49 51 52 55 57 59 60 62 64 66 68 69 70 71 70 68 67 65 64 63 63 63 62
25 24 23 22 23 23 23 25 27 28 31 32 34 35 36 38 39 41 43 45 48 50 53 55 56 58 60 63 65 66 67 67 66 65 63 61 60 59 59 59 59 59 57
19 19 19 20 20 20 21 21 23 25 26 28 30 31 33 36 38 41 43 46 48 51 53 55 57 59 61 63 64 64 63 62 60 60 59 56 54 53 53 54 55 54 53
15 15 15 15 16 17 19 19 21 23 24 26 29 31 34 36 38 41 44 47 50 52 54 56 58 60 62 62 60 59 58 57 56 56 56 54 51 49 48 49 51 51 50
13 13 13 12 13 14 15 17 19 21 24 27 29 32 34 37 40 43 45 48 50 53 55 57 59 60 59 58 57 56 55 55 54 53 52 49 47 46 43 43 46 47 46
Wind_Direction
276 278 280 283 284 286 288 290 291 292 293 294 295 295 295 295 296 296 295 295 294 293 293 293 292 291 290 290 289 288 287 286 284 283 281 280 279 277 276 275 274 273 272
275 276 277 280 282 284 286 287 289 290 291 292 293 294 295 295 296 296 295 295 294 294 293 293 293 292 292 291 290 289 288 287 286 284 283 281 280 278 277 276 275 273 272
274 275 276 278 279 281 283 284 286 288 289 290 291 293 293 294 295 295 294 294 294 293 293 293 292 292 291 291 290 289 288 286 286 285 284 283 282 280 278 277 276 274 272
272 273 274 275 277 279 280 282 283 284 286 288 289 291 292 293 294 294 294 294 293 292 292 292 292 291 291 290 290 289 288 287 286 285 284 284 282 281 280 279 278 276 274
270 271 272 274 276 277 279 280 280 281 283 285 287 288 290 291 292 292 293 292 292 292 292 291 291 291 291 290 290 289 288 287 287 286 285 284 283 282 281 280 278 277 276
269 271 272 273 275 276 277 278 278 279 281 283 284 286 287 288 290 290 290 291 291 291 291 290 290 290 289 289 289 288 288 287 286 286 285 285 284 283 282 281 280 278 277
270 271 271 272 273 274 275 276 277 278 279 281 282 283 284 286 288 288 288 289 289 289 289 289 289 289 288 288 288 288 288 287 286 286 285 284 283 283 282 282 281 279 278
270 270 270 271 272 273 274 275 275 277 278 279 280 281 283 284 285 285 286 286 287 288 288 287 287 287 287 286 287 287 287 287 287 286 285 284 284 283 283 282 281 280 279
267 268 269 270 271 272 273 274 274 276 277 278 279 281 282 283 283 283 283 284 284 285 286 285 286 286 286 285 286 286 286 286 286 286 285 285 284 284 283 282 282 281 280
268 269 269 270 271 271 272 273 274 274 275 277 278 279 280 281 281 281 281 281 282 283 283 284 285 285 284 284 285 285 284 285 285 285 285 285 284 284 283 283 282 281 280
268 269 269 269 270 270 271 271 272 273 274 274 275 276 278 279 279 280 279 279 280 281 282 283 284 284 284 284 284 284 284 284 284 284 285 285 285 284 284 283 283 282 281
268 268 269 269 270 270 270 270 271 271 271 272 273 274 276 277 278 279 279 279 279 281 282 282 283 283 284 284 284 284 283 284 284 284 285 285 285 284 284 284 283 283 283
268 268 269 269 269 269 269 269 269 269 270 270 271 272 274 275 277 276 277 279 280 280 280 282 283 282 283 284 285 284 283 284 285 285 286 286 286 285 285 285 285 284 284
269 269 269 269 269 268 268 269 269 268 269 269 269 270 272 273 274 275 275 278 280 280 280 282 283 283 283 284 285 285 285 286 286 287 287 287 287 287 286 286 286 285 285
271 271 271 270 270 269 269 268 268 267 267 268 268 269 270 272 273 275 275 277 278 278 280 283 283 283 284 285 285 286 286 287 288 288 289 289 289 288 287 287 287 286 285
274 274 273 272 271 270 269 268 267 267 266 266 267 268 269 270 272 273 275 276 277 280 281 283 282 283 286 285 287 287 288 289 289 290 290 290 290 289 289 288 287 287 286
277 276 275 273 272 270 269 268 266 265 265 264 265 266 267 269 270 272 275 276 277 279 281 282 283 284 285 287 289 289 290 290 291 291 291 292 291 291 290 289 289 288 287
279 278 276 274 272 270 268 266 265 263 262 262 263 264 266 269 270 273 275 277 279 281 283 284 284 286 287 289 290 290 291 292 292 293 293 293 292 292 291 291 290 289 288
282 280 279 275 272 269 267 265 263 261 260 261 262 265 267 268 271 274 276 278 280 282 283 284 285 287 289 290 291 292 294 294 294 294 294 294 293 293 293 292 291 290 289
284 282 281 279 274 270 266 264 262 261 260 261 263 265 267 270 272 274 276 279 281 283 284 285 287 289 291 292 293 294 295 296 296 296 295 295 295 294 293 293 292 291 290
287 286 283 280 275 271 267 264 261 260 259 261 264 267 268 271 272 275 278 281 283 284 287 289 290 292 293 294 295 296 297 297 297 297 297 297 296 295 294 294 293 293 293
291 289 283 279 276 271 266 262 261 260 261 263 265 268 270 272 275 278 281 283 285 287 289 291 293 294 296 297 298 298 298 298 298 298 298 298 297 296 296 295 295 295 295
297 293 286 279 275 271 268 263 261 262 263 266 269 272 274 276 279 282 284 286 288 291 292 294 296 297 298 298 299 299 300 300 301 300 300 300 299 299 298 297 297 298 298
302 298 289 281 276 273 269 267 265 266 267 270 272 274 279 281 282 285 289 291 293 294 296 297 299 299 300 300 300 301 301 302 302 302 302 302 301 301 301 300 300 301 301
304 303 297 288 283 277 273 271 272 273 273 277 279 281 285 287 290 291 293 294 296 298 299 300 301 301 302 302 302 302 302 303 303 302 303 304 303 303 303 301 301 302 303
305 305 302 294 289 285 281 279 279 280 283 285 286 287 290 292 294 295 296 298 299 301 302 303 303 303 303 303 303 303 304 304 304 304 303 304 304 304 303 301 301 302 303
Height
5838 5838 5837 5837 5836 5835 5834 5833 5832 5831 5830 5829 5828 5827 5826 5824 5823 5822 5820 5819 5817 5816 5814 5812 5810 5809 5807 5806 5804 5803 5802 5800 5799 5798 5797 5797 5796 5795 5795 5794 5794 5794 5794
5833 5833 5832 5832 5831 5830 5830 5829 5828 5827 5826 5824 5823 5822 5821 5819 5818 5817 5815 5813 5812 5810 5808 5807 5805 5803 5801 5800 5798 5797 5795 5794 5792 5791 5790 5789 5788 5788 5787 5787 5786 5786 5786
5827 5827 5827 5827 5826 5825 5824 5823 5822 5822 5820 5819 5818 5817 5815 5814 5812 5811 5809 5807 5806 5804 5802 5801 5799 5797 5795 5794 5792 5790 5789 5787 5786 5784 5783 5782 5781 5780 5779 5779 5778 5778 5778
5821 5821 5821 5821 5820 5819 5819 5818 5817 5816 5815 5813 5812 5811 5809 5808 5806 5805 5803 5801 5799 5798 5796 5794 5792 5791 5789 5787 5785 5783 5782 5780 5778 5777 5775 5774 5773 5772 5771 5770 5770 5769 5769
5815 5815 5815 5814 5814 5813 5812 5811 5810 5809 5808 5807 5806 5805 5803 5801 5800 5798 5796 5794 5793 5791 5789 5787 5785 5784 5782 5780 5778 5776 5774 5773 5771 5769 5768 5766 5765 5763 5762 5761 5761 5760 5760
5808 5808 5808 5807 5806 5806 5805 5804 5803 5802 5801 5800 5799 5797 5796 5794 5793 5791 5789 5787 5785 5783 5782 5780 5778 5776 5774 5772 5771 5769 5767 5765 5763 5761 5760 5758 5756 5755 5753 5752 5751 5751 5750
5800 5800 5800 5799 5799 5798 5797 5796 5795 5794 5793 5792 5791 5789 5788 5786 5785 5783 5781 5779 5778 5776 5774 5772 5770 5768 5766 5764 5762 5760 5758 5756 5754 5752 5751 5749 5747 5746 5744 5743 5741 5740 5739
5792 5791 5791 5790 5790 5789 5788 5788 5787 5785 5784 5783 5782 5780 5779 5779 5777 5775 5773 5771 5769 5767 5765 5763 5761 5759 5757 5755 5753 5751 5749 5747 5745 5743 5741 5739 5737 5736 5734 5732 5731 5730 5728
5782 5782 5782 5781 5780 5780 5779 5778 5777 5776 5775 5774 5772 5771 5770 5770 5768 5766 5764 5762 5760 5758 5756 5753 5751 5749 5747 5745 5743 5741 5739 5737 5734 5732 5730 5728 5726 5725 5723 5721 5719 5718 5716
5773 5772 5772 5771 5770 5770 5769 5768 5767 5765 5764 5763 5762 5761 5760 5759 5758 5756 5754 5752 5750 5748 5745 5743 5741 5738 5736 5734 5732 5730 5728 5726 5723 5721 5719 5717 5715 5712 5710 5708 5707 5705 5703
5763 5762 5761 5760 5759 5759 5758 5756 5756 5754 5753 5752 5751 5750 5748 5747 5746 5745 5743 5742 5739 5737 5734 5732 5730 5727 5725 5723 5721 5719 5716 5714 5711 5709 5707 5704 5702 5699 5697 5695 5693 5691 5689
5752 5751 5750 5749 5748 5747 5746 5745 5744 5743 5742 5741 5740 5739 5738 5736 5735 5733 5732 5730 5728 5725 5723 5720 5718 5715 5713 5711 5709 5706 5704 5701 5698 5696 5693 5690 5688 5685 5682 5680 5678 5675 5673
5741 5739 5737 5736 5735 5734 5733 5732 5731 5730 5729 5728 5728 5727 5726 5725 5724 5722 5720 5718 5716 5714 5711 5708 5705 5703 5700 5698 5696 5693 5691 5687 5684 5681 5678 5675 5672 5669 5666 5664 5661 5658 5655
5729 5727 5724 5723 5722 5720 5719 5718 5717 5716 5716 5716 5715 5715 5714 5713 5712 5710 5708 5706 5703 5701 5698 5695 5693 5690 5687 5684 5682 5679 5676 5673 5669 5666 5662 5659 5656 5652 5649 5646 5642 5639 5636
5715 5713 5710 5709 5707 5705 5704 5703 5702 5702 5702 5702 5702 5702 5701 5701 5699 5697 5695 5694 5691 5688 5686 5683 5680 5677 5673 5670 5668 5665 5662 5658 5654 5649 5645 5642 5638 5634 5630 5626 5623 5619 5615
5701 5698 5695 5693 5691 5689 5688 5687 5687 5687 5688 5688 5689 5689 5688 5688 5687 5685 5683 5681 5678 5675 5672 5670 5666 5663 5660 5656 5653 5650 5646 5642 5637 5632 5628 5623 5619 5614 5610 5606 5601 5597 5592
5685 5682 5679 5676 5674 5672 5671 5671 5671 5672 5673 5674 5675 5675 5675 5675 5674 5672 5670 5668 5665 5662 5659 5657 5653 5649 5645 5642 5638 5634 5629 5624 5619 5614 5609 5604 5599 5593 5588 5583 5578 5573 5568
5670 5666 5663 5659 5657 5656 5655 5656 5657 5658 5660 5661 5662 5662 5663 5662 5661 5660 5657 5655 5652 5649 5647 5643 5640 5635 5631 5626 5623 5618 5612 5607 5601 5595 5589 5583 5577 5572 5566 5560 5554 5548 5542
5655 5650 5646 5643 5641 5640 5640 5641 5642 5645 5647 5648 5650 5650 5651 5650 5649 5647 5645 5642 5640 5637 5633 5630 5626 5621 5616 5611 5607 5601 5595 5589 5582 5575 5569 5562 5555 5549 5541 5535 5528 5522 5515
5641 5636 5632 5629 5627 5626 5627 5628 5630 5632 5635 5637 5638 5639 5639 5638 5637 5636 5633 5630 5628 5624 5620 5616 5612 5607 5601 5596 5591 5585 5578 5570 5563 5555 5548 5540 5533 5525 5516 5509 5503 5496 5490
5629 5625 5621 5618 5617 5616 5616 5618 5620 5622 5624 5626 5627 5628 5628 5627 5626 5624 5622 5619 5615 5612 5607 5603 5598 5592 5586 5580 5574 5567 5560 5552 5543 5535 5528 5518 5510 5501 5493 5485 5478 5472 5466
5620 5616 5613 5611 5609 5609 5609 5610 5612 5613 5615 5616 5617 5618 5618 5617 5615 5613 5610 5607 5604 5599 5595 5590 5584 5577 5571 5564 5557 5549 5542 5534 5525 5516 5508 5499 5488 5481 5472 5465 5458 5451 5446
5613 5609 5607 5605 5604 5603 5604 5605 5606 5607 5608 5609 5609 5609 5608 5607 5605 5602 5599 5595 5591 5586 5581 5576 5569 5562 5555 5548 5541 5532 5523 5514 5505 5495 5489 5482 5471 5464 5455 5446 5439 5433 5428
5608 5605 5603 5601 5600 5600 5600 5600 5600 5601 5601 5601 5601 5600 5599 5597 5594 5591 5587 5583 5578 5573 5567 5561 5555 5547 5539 5531 5523 5515 5506 5498 5488 5477 5471 5466 5457 5449 5440 5430 5422 5416 5411
5605 5602 5600 5598 5597 5596 5596 5596 5596 5596 5595 5594 5593 5592 5590 5587 5584 5580 5576 5571 5565 5559 5553 5546 5539 5531 5522 5514 5506 5498 5490 5482 5475 5464 5455 5450 5443 5436 5428 5418 5408 5401 5396
5602 5600 5598 5596 5595 5594 5593 5592 5592 5591 5590 5588 5586 5584 5581 5577 5573 5569 5564 5558 5552 5545 5538 5530 5523 5514 5506 5498 5490 5482 5475 5467 5459 5451 5442 5437 5429 5422 5418 5409 5398 5390 5383